Time,TemperatureF,DewpointF,PressureIn,WindDirection,WindDirectionDegrees,WindSpeedMPH,WindSpeedGustMPH,Humidity,HourlyPrecipIn,Conditions,Clouds,dailyrainin,SoftwareType,DateUTC
2013-02-27 00:02:00,30.0,30.0,-100.00,North,0,14.0,17.0,99,0.00,,,-99.99,,2013-02-27 06:02:00,
2013-02-27 00:11:00,30.0,30.0,-100.00,North,0,11.0,19.0,99,0.00,,,-99.99,,2013-02-27 06:11:00,
2013-02-27 00:21:00,30.0,30.0,-100.00,North,350,13.0,21.0,99,0.00,,,-99.99,,2013-02-27 06:21:00,
2013-02-27 00:33:00,30.0,30.0,-100.00,North,350,13.0,21.0,99,0.00,,,-99.99,,2013-02-27 06:33:00,
2013-02-27 00:41:00,30.0,30.0,-100.00,North,350,13.0,21.0,99,0.00,,,-99.99,,2013-02-27 06:41:00,
2013-02-27 00:51:00,29.0,29.0,-100.00,North,0,14.0,20.0,99,0.00,,,-99.99,,2013-02-27 06:51:00,
2013-02-27 01:01:00,29.0,29.0,-100.00,North,0,13.0,21.0,99,0.00,,,-99.99,,2013-02-27 07:01:00,
2013-02-27 01:12:00,29.0,29.0,-100.00,North,0,13.0,21.0,99,0.00,,,-99.99,,2013-02-27 07:12:00,
2013-02-27 01:21:00,29.0,29.0,-100.00,North,0,14.0,20.0,99,0.00,,,-99.99,,2013-02-27 07:21:00,
2013-02-27 01:32:00,29.0,29.0,-100.00,North,355,14.0,24.0,99,0.00,,,-99.99,,2013-02-27 07:32:00,
2013-02-27 01:42:00,29.0,29.0,-100.00,North,355,16.0,22.0,99,0.00,,,-99.99,,2013-02-27 07:42:00,
2013-02-27 01:52:00,29.0,29.0,-100.00,North,355,15.0,22.0,99,0.00,,,-99.99,,2013-02-27 07:52:00,
2013-02-27 02:01:00,29.0,29.0,-100.00,North,0,16.0,22.0,99,0.00,,,-99.99,,2013-02-27 08:01:00,
2013-02-27 02:11:00,29.0,29.0,-100.00,North,0,16.0,22.0,99,0.00,,,-99.99,,2013-02-27 08:11:00,
2013-02-27 02:21:00,29.0,29.0,-100.00,North,0,16.0,22.0,99,0.00,,,-99.99,,2013-02-27 08:21:00,
2013-02-27 02:32:00,29.0,29.0,-100.00,North,0,16.0,21.0,99,0.00,,,-99.99,,2013-02-27 08:32:00,
2013-02-27 02:41:00,29.0,29.0,-100.00,North,0,16.0,21.0,99,0.00,,,-99.99,,2013-02-27 08:41:00,
2013-02-27 02:53:00,29.0,29.0,-100.00,North,0,14.0,21.0,99,0.00,,,-99.99,,2013-02-27 08:53:00,
2013-02-27 03:02:00,29.0,29.0,-100.00,North,355,14.0,22.0,99,0.00,,,-99.99,,2013-02-27 09:02:00,
2013-02-27 03:11:00,29.0,29.0,-100.00,North,355,15.0,21.0,99,0.00,,,-99.99,,2013-02-27 09:11:00,
2013-02-27 03:21:00,29.0,29.0,-100.00,North,355,15.0,21.0,99,0.00,,,-99.99,,2013-02-27 09:21:00,
2013-02-27 03:32:00,29.0,29.0,-100.00,North,0,11.0,16.0,99,0.00,,,-99.99,,2013-02-27 09:32:00,
2013-02-27 03:41:00,29.0,29.0,-100.00,North,0,11.0,16.0,99,0.00,,,-99.99,,2013-02-27 09:41:00,
2013-02-27 03:51:00,29.0,29.0,-100.00,North,355,12.0,17.0,99,0.00,,,-99.99,,2013-02-27 09:51:00,
2013-02-27 04:01:00,29.0,29.0,-100.00,North,355,12.0,17.0,99,0.00,,,-99.99,,2013-02-27 10:01:00,
2013-02-27 04:12:00,29.0,29.0,-100.00,North,350,11.0,17.0,99,0.00,,,-99.99,,2013-02-27 10:12:00,
2013-02-27 04:21:00,29.0,29.0,-100.00,North,350,11.0,18.0,99,0.00,,,-99.99,,2013-02-27 10:21:00,
2013-02-27 04:32:00,29.0,29.0,-100.00,North,355,12.0,17.0,99,0.00,,,-99.99,,2013-02-27 10:32:00,
2013-02-27 04:42:00,29.0,29.0,-100.00,North,355,12.0,17.0,99,0.00,,,-99.99,,2013-02-27 10:42:00,
2013-02-27 04:52:00,29.0,29.0,-100.00,North,0,12.0,17.0,99,0.00,,,-99.99,,2013-02-27 10:52:00,
2013-02-27 05:02:00,29.0,29.0,-100.00,North,0,12.0,17.0,99,0.00,,,-99.99,,2013-02-27 11:02:00,
2013-02-27 05:12:00,29.0,29.0,-100.00,North,0,12.0,17.0,99,0.00,,,-99.99,,2013-02-27 11:12:00,
2013-02-27 05:22:00,29.0,29.0,-100.00,North,0,12.0,17.0,99,0.00,,,-99.99,,2013-02-27 11:22:00,
2013-02-27 05:32:00,29.0,29.0,-100.00,NNW,345,11.0,16.0,99,0.00,,,-99.99,,2013-02-27 11:32:00,
2013-02-27 05:41:00,29.0,29.0,-100.00,NNW,340,11.0,16.0,99,0.00,,,-99.99,,2013-02-27 11:41:00,
2013-02-27 05:52:00,29.0,29.0,-100.00,North,355,10.0,16.0,99,0.00,,,-99.99,,2013-02-27 11:52:00,
2013-02-27 06:02:00,29.0,29.0,-100.00,North,355,13.0,16.0,99,0.01,,,-99.99,,2013-02-27 12:02:00,
2013-02-27 06:12:00,29.0,29.0,-100.00,North,355,13.0,16.0,99,0.01,,,-99.99,,2013-02-27 12:12:00,
2013-02-27 06:22:00,29.0,29.0,-100.00,NNW,345,10.0,15.0,99,0.01,,,-99.99,,2013-02-27 12:22:00,
2013-02-27 06:32:00,29.0,29.0,-100.00,NNW,345,10.0,15.0,99,0.01,,,-99.99,,2013-02-27 12:32:00,
2013-02-27 06:42:00,29.0,29.0,-100.00,NNW,345,10.0,15.0,99,0.01,,,-99.99,,2013-02-27 12:42:00,
2013-02-27 06:52:00,28.0,28.0,-100.00,NNW,335,9.0,13.0,99,0.01,,,-99.99,,2013-02-27 12:52:00,
2013-02-27 07:02:00,28.0,28.0,-100.00,NNW,335,9.0,13.0,99,0.01,,,-99.99,,2013-02-27 13:02:00,
2013-02-27 07:11:00,28.0,28.0,-100.00,NNW,340,8.0,15.0,99,0.01,,,-99.99,,2013-02-27 13:11:00,
2013-02-27 07:22:00,29.0,29.0,-100.00,NNW,340,10.0,14.0,99,0.01,,,-99.99,,2013-02-27 13:22:00,
2013-02-27 07:32:00,29.0,29.0,-100.00,NNW,340,10.0,14.0,99,0.01,,,-99.99,,2013-02-27 13:32:00,
2013-02-27 07:42:00,29.0,29.0,-100.00,NNW,340,10.0,14.0,99,0.01,,,-99.99,,2013-02-27 13:42:00,
2013-02-27 07:52:00,29.0,29.0,-100.00,NNW,335,11.0,17.0,99,0.01,,,-99.99,,2013-02-27 13:52:00,
2013-02-27 08:02:00,29.0,29.0,-100.00,NNW,335,11.0,17.0,99,0.01,,,-99.99,,2013-02-27 14:02:00,
2013-02-27 08:12:00,29.0,29.0,-100.00,NNW,335,12.0,17.0,99,0.01,,,-99.99,,2013-02-27 14:12:00,
2013-02-27 08:22:00,29.0,29.0,-100.00,NNW,340,12.0,17.0,99,0.00,,,-99.99,,2013-02-27 14:22:00,
2013-02-27 08:32:00,29.0,29.0,-100.00,NNW,340,12.0,17.0,99,0.00,,,-99.99,,2013-02-27 14:32:00,
2013-02-27 08:42:00,29.0,29.0,-100.00,NNW,340,12.0,17.0,99,0.00,,,-99.99,,2013-02-27 14:42:00,
2013-02-27 08:52:00,30.0,30.0,-100.00,NNW,345,13.0,17.0,99,0.00,,,-99.99,,2013-02-27 14:52:00,
2013-02-27 09:02:00,30.0,30.0,-100.00,North,355,11.0,16.0,99,0.01,,,-99.99,,2013-02-27 15:02:00,
2013-02-27 09:12:00,30.0,30.0,-100.00,North,350,12.0,17.0,99,0.01,,,-99.99,,2013-02-27 15:12:00,
2013-02-27 09:22:00,30.0,30.0,-100.00,NNW,340,11.0,16.0,99,0.00,,,-99.99,,2013-02-27 15:22:00,
2013-02-27 09:32:00,31.0,31.0,-100.00,North,355,11.0,16.0,99,0.00,,,-99.99,,2013-02-27 15:32:00,
2013-02-27 09:42:00,31.0,31.0,-100.00,North,355,11.0,16.0,99,0.00,,,-99.99,,2013-02-27 15:42:00,
2013-02-27 09:52:00,31.0,31.0,-100.00,NNW,345,11.0,17.0,99,0.01,,,-99.99,,2013-02-27 15:52:00,
2013-02-27 10:02:00,31.0,31.0,-100.00,NNW,345,11.0,17.0,99,0.01,,,-99.99,,2013-02-27 16:02:00,
2013-02-27 10:12:00,31.0,31.0,-100.00,North,350,9.0,17.0,99,0.01,,,-99.99,,2013-02-27 16:12:00,
2013-02-27 10:22:00,31.0,31.0,-100.00,North,350,9.0,17.0,99,0.01,,,-99.99,,2013-02-27 16:22:00,
2013-02-27 10:32:00,31.0,31.0,-100.00,NNW,340,10.0,14.0,99,0.01,,,-99.99,,2013-02-27 16:32:00,
2013-02-27 10:42:00,31.0,31.0,-100.00,NNW,340,10.0,14.0,99,0.01,,,-99.99,,2013-02-27 16:42:00,
2013-02-27 10:52:00,31.0,31.0,-100.00,NW,325,12.0,16.0,99,0.01,,,-99.99,,2013-02-27 16:52:00,
2013-02-27 11:02:00,31.0,31.0,-100.00,NW,325,12.0,16.0,99,0.01,,,-99.99,,2013-02-27 17:02:00,
2013-02-27 11:11:00,31.0,31.0,-100.00,NNW,340,12.0,16.0,99,0.04,,,-99.99,,2013-02-27 17:11:00,
2013-02-27 11:21:00,31.0,31.0,-100.00,NNW,340,12.0,16.0,99,0.04,,,-99.99,,2013-02-27 17:21:00,
2013-02-27 11:32:00,31.0,31.0,-100.00,NNW,335,11.0,16.0,99,0.04,,,-99.99,,2013-02-27 17:32:00,
2013-02-27 11:41:00,31.0,31.0,-100.00,NNW,335,11.0,16.0,99,0.04,,,-99.99,,2013-02-27 17:41:00,
2013-02-27 11:52:00,31.0,31.0,-100.00,NNW,330,13.0,16.0,99,0.01,,,-99.99,,2013-02-27 17:52:00,
2013-02-27 12:01:00,31.0,31.0,-100.00,NNW,330,13.0,17.0,99,0.11,,,-99.99,,2013-02-27 18:01:00,
2013-02-27 12:11:00,31.0,31.0,-100.00,NNW,335,9.0,16.0,99,0.16,,,-99.99,,2013-02-27 18:11:00,
2013-02-27 12:22:00,31.0,31.0,-100.00,NNW,340,8.0,13.0,99,0.14,,,-99.99,,2013-02-27 18:22:00,
2013-02-27 12:32:00,32.0,32.0,-100.00,NNW,340,9.0,15.0,99,0.08,,,-99.99,,2013-02-27 18:32:00,
2013-02-27 12:42:00,32.0,32.0,-100.00,NNW,340,9.0,15.0,99,0.08,,,-99.99,,2013-02-27 18:42:00,
2013-02-27 12:51:00,32.0,32.0,-100.00,NW,325,6.0,16.0,99,0.08,,,-99.99,,2013-02-27 18:51:00,
2013-02-27 13:01:00,32.0,32.0,-100.00,NNW,330,11.0,16.0,99,0.03,,,-99.99,,2013-02-27 19:01:00,
2013-02-27 13:11:00,32.0,32.0,-100.00,NW,315,7.0,13.0,99,0.06,,,-99.99,,2013-02-27 19:11:00,
2013-02-27 13:21:00,33.0,33.0,-100.00,NNW,330,9.0,14.0,99,0.04,,,-99.99,,2013-02-27 19:21:00,
2013-02-27 13:32:00,33.0,33.0,-100.00,NNW,330,9.0,14.0,99,0.03,,,-99.99,,2013-02-27 19:32:00,
2013-02-27 13:42:00,33.0,33.0,-100.00,NW,320,11.0,15.0,99,0.03,,,-99.99,,2013-02-27 19:42:00,
2013-02-27 13:52:00,33.0,33.0,-100.00,NW,305,9.0,16.0,99,0.01,,,-99.99,,2013-02-27 19:52:00,
2013-02-27 14:01:00,33.0,33.0,-100.00,NW,305,9.0,16.0,99,0.01,,,-99.99,,2013-02-27 20:01:00,
2013-02-27 14:12:00,33.0,33.0,-100.00,NW,325,10.0,15.0,99,0.01,,,-99.99,,2013-02-27 20:12:00,
2013-02-27 14:21:00,33.0,33.0,-100.00,NW,315,8.0,15.0,99,0.00,,,-99.99,,2013-02-27 20:21:00,
2013-02-27 14:32:00,33.0,33.0,-100.00,NNW,330,9.0,14.0,99,0.01,,,-99.99,,2013-02-27 20:32:00,
2013-02-27 14:42:00,33.0,33.0,-100.00,NNW,330,9.0,14.0,99,0.01,,,-99.99,,2013-02-27 20:42:00,
2013-02-27 14:52:00,32.0,32.0,-100.00,NW,325,9.0,14.0,99,0.01,,,-99.99,,2013-02-27 20:52:00,
2013-02-27 15:02:00,32.0,32.0,-100.00,NW,320,8.0,14.0,99,0.00,,,-99.99,,2013-02-27 21:02:00,
2013-02-27 15:11:00,33.0,33.0,-100.00,NW,325,9.0,16.0,99,0.00,,,-99.99,,2013-02-27 21:11:00,
2013-02-27 15:21:00,33.0,33.0,-100.00,NW,325,9.0,16.0,99,0.00,,,-99.99,,2013-02-27 21:21:00,
2013-02-27 15:32:00,33.0,32.0,-100.00,NNW,335,8.0,16.0,98,0.01,,,-99.99,,2013-02-27 21:32:00,
2013-02-27 15:42:00,32.0,32.0,-100.00,NW,325,9.0,16.0,98,0.03,,,-99.99,,2013-02-27 21:42:00,
2013-02-27 15:51:00,32.0,32.0,-100.00,NW,305,9.0,14.0,98,0.01,,,-99.99,,2013-02-27 21:51:00,
2013-02-27 16:01:00,32.0,32.0,-100.00,NW,305,9.0,14.0,98,0.01,,,-99.99,,2013-02-27 22:01:00,
2013-02-27 16:11:00,32.0,32.0,-100.00,NW,305,9.0,14.0,98,0.01,,,-99.99,,2013-02-27 22:11:00,
2013-02-27 16:21:00,32.0,32.0,-100.00,NW,325,8.0,15.0,99,0.00,,,-99.99,,2013-02-27 22:21:00,
2013-02-27 16:31:00,32.0,32.0,-100.00,NW,325,8.0,15.0,99,0.00,,,-99.99,,2013-02-27 22:31:00,
2013-02-27 16:42:00,32.0,32.0,-100.00,NNW,330,10.0,16.0,99,0.01,,,-99.99,,2013-02-27 22:42:00,
2013-02-27 16:52:00,32.0,32.0,-100.00,NNW,330,12.0,15.0,99,0.01,,,-99.99,,2013-02-27 22:52:00,
2013-02-27 17:01:00,32.0,32.0,-100.00,NNW,330,12.0,15.0,99,0.01,,,-99.99,,2013-02-27 23:01:00,
2013-02-27 17:11:00,32.0,32.0,-100.00,NW,320,9.0,16.0,99,0.00,,,-99.99,,2013-02-27 23:11:00,
2013-02-27 17:21:00,32.0,32.0,-100.00,NW,320,9.0,16.0,99,0.00,,,-99.99,,2013-02-27 23:21:00,
2013-02-27 17:32:00,32.0,32.0,-100.00,NW,320,10.0,14.0,99,0.00,,,-99.99,,2013-02-27 23:32:00,
2013-02-27 17:42:00,32.0,32.0,-100.00,NW,320,10.0,14.0,99,0.00,,,-99.99,,2013-02-27 23:42:00,
2013-02-27 17:52:00,31.0,31.0,-100.00,NW,310,7.0,12.0,99,0.00,,,-99.99,,2013-02-27 23:52:00,
2013-02-27 18:01:00,31.0,31.0,-100.00,NW,325,7.0,12.0,99,0.00,,,-99.99,,2013-02-28 00:01:00,
2013-02-27 18:11:00,31.0,31.0,-100.00,NW,325,7.0,12.0,99,0.00,,,-99.99,,2013-02-28 00:11:00,
2013-02-27 18:21:00,31.0,31.0,-100.00,NW,305,7.0,13.0,99,0.00,,,-99.99,,2013-02-28 00:21:00,
2013-02-27 18:32:00,31.0,31.0,-100.00,NW,305,7.0,13.0,99,0.00,,,-99.99,,2013-02-28 00:32:00,
2013-02-27 18:42:00,31.0,31.0,-100.00,NW,310,7.0,13.0,99,0.00,,,-99.99,,2013-02-28 00:42:00,
2013-02-27 18:52:00,31.0,31.0,-100.00,NW,315,6.0,12.0,99,0.00,,,-99.99,,2013-02-28 00:52:00,
2013-02-27 19:01:00,31.0,31.0,-100.00,NW,315,6.0,12.0,99,0.00,,,-99.99,,2013-02-28 01:01:00,
2013-02-27 19:11:00,31.0,31.0,-100.00,NW,315,6.0,12.0,99,0.00,,,-99.99,,2013-02-28 01:11:00,
2013-02-27 19:21:00,31.0,31.0,-100.00,NW,305,8.0,14.0,99,0.01,,,-99.99,,2013-02-28 01:21:00,
2013-02-27 19:32:00,31.0,31.0,-100.00,NW,320,7.0,15.0,99,0.00,,,-99.99,,2013-02-28 01:32:00,
2013-02-27 19:42:00,31.0,31.0,-100.00,NW,325,8.0,12.0,99,0.00,,,-99.99,,2013-02-28 01:42:00,
2013-02-27 19:52:00,30.0,30.0,-100.00,NW,315,6.0,12.0,99,0.00,,,-99.99,,2013-02-28 01:52:00,
2013-02-27 20:01:00,30.0,30.0,-100.00,NW,315,6.0,12.0,99,0.00,,,-99.99,,2013-02-28 02:01:00,
2013-02-27 20:11:00,30.0,30.0,-100.00,NW,305,6.0,11.0,99,0.00,,,-99.99,,2013-02-28 02:11:00,
2013-02-27 20:22:00,30.0,30.0,-100.00,NW,315,6.0,10.0,99,0.00,,,-99.99,,2013-02-28 02:22:00,
2013-02-27 20:31:00,30.0,30.0,-100.00,NW,305,5.0,9.0,99,0.00,,,-99.99,,2013-02-28 02:31:00,
2013-02-27 20:41:00,30.0,30.0,-100.00,NW,305,5.0,9.0,99,0.00,,,-99.99,,2013-02-28 02:41:00,
2013-02-27 20:51:00,30.0,30.0,-100.00,NW,305,5.0,9.0,99,0.00,,,-99.99,,2013-02-28 02:51:00,
2013-02-27 21:01:00,30.0,30.0,-100.00,NW,305,4.0,9.0,99,0.00,,,-99.99,,2013-02-28 03:01:00,
2013-02-27 21:11:00,30.0,30.0,-100.00,NW,305,4.0,9.0,99,0.00,,,-99.99,,2013-02-28 03:11:00,
2013-02-27 21:21:00,30.0,30.0,-100.00,NW,320,7.0,10.0,99,0.00,,,-99.99,,2013-02-28 03:21:00,
2013-02-27 21:32:00,30.0,30.0,-100.00,NW,320,7.0,10.0,99,0.00,,,-99.99,,2013-02-28 03:32:00,
2013-02-27 21:42:00,30.0,30.0,-100.00,NW,320,6.0,11.0,99,0.00,,,-99.99,,2013-02-28 03:42:00,
2013-02-27 21:52:00,29.0,29.0,-100.00,NW,315,6.0,11.0,99,0.00,,,-99.99,,2013-02-28 03:52:00,
2013-02-27 22:01:00,29.0,29.0,-100.00,NW,315,6.0,11.0,99,0.00,,,-99.99,,2013-02-28 04:01:00,
2013-02-27 22:11:00,28.0,28.0,-100.00,WNW,300,6.0,9.0,99,0.00,,,-99.99,,2013-02-28 04:11:00,
2013-02-27 22:21:00,28.0,28.0,-100.00,NW,320,6.0,9.0,99,0.00,,,-99.99,,2013-02-28 04:21:00,
2013-02-27 22:32:00,28.0,28.0,-100.00,NW,315,6.0,9.0,99,0.00,,,-99.99,,2013-02-28 04:32:00,
2013-02-27 22:42:00,28.0,28.0,-100.00,NW,315,6.0,9.0,99,0.00,,,-99.99,,2013-02-28 04:42:00,
2013-02-27 22:51:00,29.0,29.0,-100.00,NW,325,7.0,9.0,99,0.00,,,-99.99,,2013-02-28 04:51:00,
2013-02-27 23:01:00,29.0,29.0,-100.00,NW,325,7.0,9.0,99,0.00,,,-99.99,,2013-02-28 05:01:00,
2013-02-27 23:11:00,29.0,29.0,-100.00,NW,325,7.0,9.0,99,0.00,,,-99.99,,2013-02-28 05:11:00,
2013-02-27 23:22:00,29.0,29.0,-100.00,NW,310,5.0,10.0,99,0.00,,,-99.99,,2013-02-28 05:22:00,
2013-02-27 23:31:00,29.0,29.0,-100.00,NW,310,6.0,9.0,99,0.00,,,-99.99,,2013-02-28 05:31:00,
2013-02-27 23:42:00,29.0,29.0,-100.00,NW,310,6.0,9.0,99,0.00,,,-99.99,,2013-02-28 05:42:00,
2013-02-27 23:52:00,29.0,29.0,-100.00,NNW,330,5.0,9.0,99,0.00,,,-99.99,,2013-02-28 05:52:00,